Location: Arcizac
(43.0933°N, 0.0112°E)
Time: 00:02:43
(UTC+00:00)

Cosmos 292 Rocket - Pass Details

Date: 14 December 2019
Orbit: 673 x 694 km, 74.0° (Epoch: 19 January)

Event Time Altitude Azimuth Distance (km) Brightness Sun altitude
Rises 16:49:45 0° 342° (NNW) 3,082 7.0 -4.7°
Reaches altitude 10° 16:52:07 10° 346° (NNW) 2,161 6.2 -5.1°
Maximum altitude 16:56:56 61° 67° (ENE) 791 3.8 -5.9°
Drops below altitude 10° 17:01:43 10° 148° (SSE) 2,140 6.3 -6.7°
Sets 17:04:02 0° 152° (SSE) 3,049 7.1 -7.0°
